sat.trackr.live / text

‹ back to catalog

YAOGAN-36 01C

NORAD 53947 · 2022-120E

PAYLOAD ACTIVE UNKNOWN

§ Identity

Operator
Country
PRC
Launch date
2022-09-26
Launch site
XICLF
Launch vehicle
Mass (kg)
RCS (m²)

External: N2YO · Heavens-Above · Gunter

§ Orbital elements

Epoch: 2026-09-20T15:02:29.090112Z

Period
93.45 min
Inclination
35.0041°
Eccentricity
0.0003195
Mean motion
15.40867613 rev/d
Perigee alt
441.4 km
Apogee alt
445.7 km
Semi-major
6,821.7 km
B*
4.2149e-4
RAAN
342.8172°
Arg perigee
313.2606°
Mean anomaly
46.7847°
Rev number
22,251

§ Raw data

YAOGAN-36 01C1 53947U 22120E   26263.62672558  .00017800  00000+0  42149-3 0  99932 53947  35.0041 342.8172 0003195 313.2606  46.7847 15.40867613222518

JSON: /api/v1/satellites/53947 · /tle

For live sub-satellite position, see the globe view (requires WebGL).

§ Visibility from observer

Set your observer location to see the next 7 days of passes ≥ 10°. The values pass through the URL so the page stays shareable.

No JS? Fill the form by hand. The geolocation button needs JavaScript.